FW3090 Weather Reports


Display with metric or nautical units.
time (UTC)temp
F
wind
direction
speed
MPH
gust
MPH
rain 1hr
in
rain 24hr
in
rain mn
in
humidity
%
barometer
mb
20260505053325 48 286 4.0 8.0 0.00 0.00 0.00 44 1005.7
20260505052819 48 298 5.0 9.0 0.00 0.00 0.00 43 1005.7
20260505052312 48 300 5.0 12.0 0.00 0.00 0.00 43 1005.7
20260505051807 48 276 5.0 12.0 0.00 0.00 0.00 43 1005.8
20260505051529 48 306 5.0 11.0 0.00 0.00 0.00 43 1005.7
20260505050754 48 295 6.0 13.0 0.00 0.00 0.00 43 1005.7
20260505050249 48 295 6.0 13.0 0.00 0.00 0.00 43 1005.7
20260505041738 50 9 4.0 10.0 0.00 0.00 0.00 45 1005.4
20260505041237 50 288 4.0 14.0 0.00 0.00 0.00 44 1005.3
20260505040738 50 313 6.0 14.0 0.00 0.00 0.00 44 1005.2
20260505040456 50 321 6.0 14.0 0.00 0.00 0.00 43 1005.2
20260505035737 51 333 7.0 17.0 0.00 0.00 0.00 43 1004.9
20260505035238 51 306 9.0 17.0 0.00 0.00 0.00 42 1005.1
20260505034957 51 294 10.0 17.0 0.00 0.00 0.00 42 1004.9
20260505034234 51 307 10.0 20.0 0.00 0.00 0.00 41 1005.0
20260505033734 51 317 9.0 20.0 0.00 0.00 0.00 42 1004.8
20260505033234 52 294 8.0 17.0 0.00 0.00 0.00 43 1004.7
20260505032733 52 301 8.0 17.0 0.00 0.00 0.00 43 1004.6
20260505032233 52 296 7.0 12.0 0.00 0.00 0.00 43 1004.4
20260505031733 52 306 8.0 14.0 0.00 0.00 0.00 43 1004.3
20260505031233 52 312 8.0 14.0 0.00 0.00 0.00 43 1004.2
20260505030733 52 300 8.0 14.0 0.00 0.00 0.00 43 1004.2
20260505030501 52 282 9.0 15.0 0.00 0.00 0.00 43 1004.2
20260505025913 53 298 8.0 14.0 0.00 0.00 0.00 43 1003.9
20260505025907 53 294 8.0 15.0 0.00 0.00 0.00 42 1004.0
20260505025637 53 315 7.0 14.0 0.00 0.00 0.00 44 1003.9
20260505024229 53 327 7.0 12.0 0.00 0.00 0.00 44 1003.8
20260505023953 53 306 7.0 12.0 0.00 0.00 0.00 43 1003.7
20260505023229 54 303 6.0 11.0 0.00 0.00 0.00 43 1003.5
20260505022729 54 300 7.0 15.0 0.00 0.00 0.00 43 1003.4
20260505022229 54 9 8.0 15.0 0.00 0.00 0.00 42 1003.3
20260505021729 54 340 8.0 15.0 0.00 0.00 0.00 42 1003.1
20260505021222 55 313 9.0 20.0 0.00 0.00 0.00 42 1003.0
20260505020716 55 319 11.0 20.0 0.00 0.00 0.00 41 1002.8
20260505020210 55 309 11.0 19.0 0.00 0.00 0.00 41 1002.9
20260505015704 55 317 11.0 19.0 0.00 0.00 0.00 41 1002.7
20260505015159 56 309 11.0 19.0 0.00 0.00 0.00 41 1002.4
20260505014652 56 315 9.0 18.0 0.00 0.00 0.00 41 1002.4
20260505014148 56 306 8.0 18.0 0.00 0.00 0.00 41 1002.0
20260505013641 56 296 9.0 18.0 0.00 0.00 0.00 42 1002.1
20260505013134 56 309 8.0 15.0 0.00 0.00 0.00 42 1001.9
20260505012629 56 315 9.0 14.0 0.00 0.00 0.00 40 1001.8
20260505012122 57 284 9.0 18.0 0.00 0.00 0.00 40 1001.7
20260505011617 57 283 10.0 18.0 0.00 0.00 0.00 40 1001.7
20260505011331 57 292 8.0 15.0 0.00 0.00 0.00 39 1001.6
20260505010605 57 294 9.0 17.0 0.00 0.00 0.00 40 1001.6
20260505010058 58 0 10.0 17.0 0.00 0.00 0.00 39 1001.4
20260505005553 58 302 10.0 17.0 0.00 0.00 0.00 39 1001.3
20260505005046 58 305 9.0 18.0 0.00 0.00 0.00 39 1001.2
20260505004541 58 305 10.0 17.0 0.00 0.00 0.00 39 1001.1
20260505004034 58 332 9.0 17.0 0.00 0.00 0.00 39 1001.1
20260505003529 58 297 8.0 15.0 0.00 0.00 0.00 38 1001.2
20260505003022 59 300 10.0 16.0 0.00 0.00 0.00 38 1001.1
20260505002516 59 288 10.0 16.0 0.00 0.00 0.00 37 1001.0
20260505002010 59 275 11.0 17.0 0.00 0.00 0.00 36 1000.7
20260505001504 60 299 11.0 17.0 0.00 0.00 0.00 36 1000.7
20260505000959 60 302 11.0 16.0 0.00 0.00 0.00 36 1000.6
20260505000713 60 284 10.0 20.0 0.00 0.00 0.00 35 1000.5
20260504235946 60 304 12.0 20.0 0.00 0.00 0.00 36 1000.4
20260504235441 61 298 13.0 25.0 0.00 0.00 0.00 35 1000.4
20260504234934 61 306 11.0 25.0 0.00 0.00 0.00 35 1000.3
20260504234428 61 290 10.0 18.0 0.00 0.00 0.00 36 1000.3
20260504234143 61 311 10.0 18.0 0.00 0.00 0.00 35 1000.2
20260504233636 62 321 11.0 21.0 0.00 0.00 0.00 35 1000.3
20260504232911 62 286 12.0 21.0 0.00 0.00 0.00 34 1000.2
20260504232405 62 266 11.0 20.0 0.00 0.00 0.00 34 1000.0
20260504231859 62 275 10.0 18.0 0.00 0.00 0.00 34 999.9
20260504231353 62 298 9.0 16.0 0.00 0.00 0.00 36 999.9
20260504231107 62 292 8.0 14.0 0.00 0.00 0.00 36 999.8
20260504230340 62 279 7.0 12.0 0.00 0.00 0.00 35 999.8
20260504225834 62 271 8.0 16.0 0.00 0.00 0.00 35 999.8
20260504225329 62 291 9.0 16.0 0.00 0.00 0.00 35 999.9
20260504224823 63 288 10.0 20.0 0.00 0.00 0.00 35 999.8
20260504224317 63 306 12.0 20.0 0.00 0.00 0.00 33 999.7
20260504223810 64 298 11.0 18.0 0.00 0.00 0.00 32 999.7
20260504223304 64 304 11.0 17.0 0.00 0.00 0.00 32 999.6
20260504223244 64 269 13.0 24.0 0.00 0.00 0.00 29 999.4
20260504222252 64 280 14.0 24.0 0.00 0.00 0.00 28 999.4
20260504221747 65 282 13.0 21.0 0.00 0.00 0.00 26 999.3
20260504221502 65 279 13.0 21.0 0.00 0.00 0.00 27 999.1
20260504220734 65 300 13.0 21.0 0.00 0.00 0.00 27 999.1
20260504220229 65 315 10.0 21.0 0.00 0.00 0.00 28 998.9
20260504215722 65 307 10.0 19.0 0.00 0.00 0.00 28 998.9
20260504215218 66 282 9.0 15.0 0.00 0.00 0.00 27 998.9
20260504214711 65 269 10.0 15.0 0.00 0.00 0.00 27 998.8
20260504214204 65 283 11.0 20.0 0.00 0.00 0.00 29 998.8
20260504213658 65 313 12.0 21.0 0.00 0.00 0.00 28 998.7
20260504213153 65 293 13.0 21.0 0.00 0.00 0.00 27 998.7
20260504212646 66 286 12.0 21.0 0.00 0.00 0.00 27 998.6
20260504212401 67 313 12.0 21.0 0.00 0.00 0.00 27 998.6
20260504211634 67 287 12.0 21.0 0.00 0.00 0.00 26 998.5
20260504211129 67 304 12.0 19.0 0.00 0.00 0.00 27 998.4
20260504210622 67 277 12.0 19.0 0.00 0.00 0.00 27 998.5
20260504210117 67 306 11.0 19.0 0.00 0.00 0.00 27 998.5
20260504205610 67 277 10.0 19.0 0.00 0.00 0.00 28 998.4
20260504205105 67 300 8.0 14.0 0.00 0.00 0.00 30 998.4
20260504204558 67 279 9.0 17.0 0.00 0.00 0.00 32 998.4
20260504204053 67 263 11.0 17.0 0.00 0.00 0.00 32 998.5
20260504203547 67 269 11.0 17.0 0.00 0.00 0.00 31 998.4
20260504203303 67 302 12.0 20.0 0.00 0.00 0.00 32 998.3
20260504202757 67 288 10.0 20.0 0.00 0.00 0.00 29 998.3
20260504202029 68 317 7.0 15.0 0.00 0.00 0.00 34 998.4
20260504201524 67 288 9.0 16.0 0.00 0.00 0.00 34 998.5
20260504201016 67 306 9.0 16.0 0.00 0.00 0.00 31 998.4
20260504200511 67 269 10.0 15.0 0.00 0.00 0.00 31 998.5
20260504200010 67 303 11.0 17.0 0.00 0.00 0.00 30 998.4
20260504195509 67 256 12.0 18.0 0.00 0.00 0.00 31 998.4
20260504195009 67 290 11.0 18.0 0.00 0.00 0.00 31 998.2
20260504194508 67 267 11.0 19.0 0.00 0.00 0.00 29 998.2
20260504194009 68 265 11.0 19.0 0.00 0.00 0.00 34 998.1
20260504193508 68 296 10.0 16.0 0.00 0.00 0.00 32 998.1
20260504193009 67 324 10.0 18.0 0.00 0.00 0.00 33 998.0
20260504192509 68 296 11.0 18.0 0.00 0.00 0.00 32 998.0
20260504192009 68 290 11.0 17.0 0.00 0.00 0.00 30 997.9
20260504191509 69 301 8.0 16.0 0.00 0.00 0.00 30 997.9
20260504191008 69 265 8.0 17.0 0.00 0.00 0.00 30 997.9
20260504190508 69 344 10.0 18.0 0.00 0.00 0.00 34 997.7
20260504190009 69 330 10.0 18.0 0.00 0.00 0.00 29 997.7
20260504185505 69 302 9.0 18.0 0.00 0.00 0.00 30 997.8
20260504185004 69 311 9.0 18.0 0.00 0.00 0.00 29 997.7
20260504184504 69 337 12.0 19.0 0.00 0.00 0.00 32 997.6
20260504184004 70 292 12.0 19.0 0.00 0.00 0.00 28 997.6
20260504183504 70 281 12.0 19.0 0.00 0.00 0.00 27 997.6
20260504183006 70 265 12.0 19.0 0.00 0.00 0.00 28 997.4
20260504182504 71 294 12.0 19.0 0.00 0.00 0.00 27 997.4
20260504182004 72 284 11.0 18.0 0.00 0.00 0.00 28 997.4
20260504181506 74 267 9.0 16.0 0.00 0.00 0.00 32 997.3
20260504181005 74 261 8.0 16.0 0.00 0.00 0.00 34 997.3
20260504180505 73 285 8.0 16.0 0.00 0.00 0.00 37 997.3
20260504180005 73 238 8.0 16.0 0.00 0.00 0.00 35 997.2
20260504175504 73 277 7.0 13.0 0.00 0.00 0.00 36 997.2
20260504175004 73 275 8.0 14.0 0.00 0.00 0.00 36 997.2
20260504174728 72 291 9.0 16.0 0.00 0.00 0.00 38 997.1
20260504174003 71 288 9.0 16.0 0.00 0.00 0.00 37 997.2
20260504173503 72 302 8.0 13.0 0.00 0.00 0.00 37 997.3
20260504173001 72 257 9.0 17.0 0.00 0.00 0.00 39 997.2
20260504172456 71 313 11.0 17.0 0.00 0.00 0.00 39 997.3
20260504171949 71 277 11.0 15.0 0.00 0.00 0.00 37 997.5
20260504171444 72 277 10.0 15.0 0.00 0.00 0.00 39 997.4
20260504170938 71 265 9.0 14.0 0.00 0.00 0.00 40 997.3
20260504170431 71 267 9.0 14.0 0.00 0.00 0.00 39 997.3
20260504160319 71 245 10.0 18.0 0.00 0.00 0.00 40 997.2
20260504150714 68 264 10.0 14.0 0.00 0.00 0.00 41 997.2
20260504150208 68 281 10.0 15.0 0.00 0.00 0.00 41 997.0
20260504141108 64 266 5.0 12.0 0.00 0.00 0.00 48 997.0
20260504140601 64 273 5.0 9.0 0.00 0.00 0.00 47 997.0
20260504130449 60 245 5.0 11.0 0.00 0.00 0.00 47 997.0
20260504110235 42 172 0.0 3.0 0.00 0.00 0.00 80 998.0
20260504100228 43 92 1.0 3.0 0.00 0.00 0.00 80 998.6
20260504081658 42 80 0.0 0.0 0.00 0.00 0.00 81 1000.4
20260504081153 42 66 0.0 0.0 0.00 0.00 0.00 81 1000.5
20260504080647 42 51 0.0 0.0 0.00 0.00 0.00 81 1000.6
20260504080404 42 50 0.0 0.0 0.00 0.00 0.00 81 1000.6